This is the latest recevied weather packets stored in our database for station/object N0NPO. If no packets are shown the sender has not sent any weather packets the latest 10 day(s).
| Time | Temp. | Humidity | Pressure | Rain* | Wind** | Luminosity | Snow |
|---|---|---|---|---|---|---|---|
| 1778273548 | 20.56° C | 1% | 1012.2 hPa | 0 mm | - | 635 W/m² | - |
| 1778273245 | 21.67° C | 1% | 1012 hPa | 0 mm | - | 595 W/m² | - |
| 1778272942 | 21.11° C | 1% | 1012.3 hPa | 0 mm | - | 654 W/m² | - |
| 1778272637 | 21.67° C | 1% | 1012.1 hPa | 0 mm | - | 662 W/m² | - |
| 1778272334 | 21.67° C | 1% | 1012.1 hPa | 0 mm | - | 683 W/m² | - |
| 1778272030 | 20.56° C | 1% | 1011.9 hPa | 0 mm | - | 599 W/m² | - |
| 1778271727 | 20.56° C | 1% | 1012.1 hPa | 0 mm | - | 632 W/m² | - |
| 1778271424 | 20.56° C | 1% | 1012.1 hPa | 0 mm | - | 654 W/m² | - |
| 1778271121 | 21.11° C | 1% | 1012 hPa | 0 mm | - | 663 W/m² | - |
| 1778270817 | 21.11° C | 1% | 1012.1 hPa | 0 mm | - | 689 W/m² | - |
| 1778270513 | 21.67° C | 1% | 1011.8 hPa | 0 mm | - | 701 W/m² | - |
| 1778270210 | 21.67° C | 1% | 1011.5 hPa | 0 mm | - | 610 W/m² | - |
| 1778269907 | 21.67° C | 1% | 1011.9 hPa | 0 mm | - | 679 W/m² | - |
| 1778269603 | 21.11° C | 1% | 1011.8 hPa | 0 mm | - | 664 W/m² | - |
| 1778269300 | 21.11° C | 1% | 1012 hPa | 0 mm | - | 708 W/m² | - |
| 1778268997 | 21.11° C | 1% | 1011.9 hPa | 0 mm | - | 703 W/m² | - |
| 1778268694 | 21.11° C | 1% | 1011.8 hPa | 0 mm | - | 681 W/m² | - |
| 1778268391 | 20.56° C | 1% | 1011.8 hPa | 0 mm | - | 553 W/m² | - |
| 1778268088 | 21.11° C | 1% | 1011.7 hPa | 0 mm | - | 643 W/m² | - |
| 1778267785 | 21.11° C | 1% | 1011.8 hPa | 0 mm | - | 716 W/m² | - |
| 1778267481 | 21.11° C | 1% | 1011.9 hPa | 0 mm | - | 690 W/m² | - |
| 1778267179 | 21.11° C | 1% | 1011.7 hPa | 0 mm | - | 761 W/m² | - |
| 1778266875 | 20.56° C | 1% | 1011.7 hPa | 0 mm | - | 757 W/m² | - |
| 1778266572 | 20° C | 1% | 1011.6 hPa | 0 mm | - | 800 W/m² | - |
| 1778266269 | 20.56° C | 1% | 1011.6 hPa | 0 mm | - | 799 W/m² | - |
* Rain latest hour (hover to see other rain measurements)
** Current wind speed in m/s (hover to see current wind gust speed)